Location: Warner Observatory
(35.1353°N, 89.5455°W)
Time: 19:56:38
(UTC-06:00)

Envisat - Pass Details

Date: 30 January 2020
Orbit: 764 x 766 km, 98.1° (Epoch: 21 February)

Event Time Altitude Azimuth Distance (km) Brightness Sun altitude
Rises 05:29:58 0° 31° (NNE) 3,234 6.5 -18.4°
Reaches altitude 10° 05:32:59 10° 50° (NE) 2,303 6.0 -17.8°
Maximum altitude 05:36:27 18° 94° (E) 1,786 6.0 -17.1°
Drops below altitude 10° 05:39:55 10° 137° (SE) 2,293 6.3 -16.4°
Sets 05:42:54 0° 155° (SSE) 3,214 6.7 -15.8°
